Torna al catalogo

COSMOS 839 DEB

AttivoUNKNOWN
NORAD 10439·DEBRIS·🇷🇺 Russia

Lanciato Jul 8, 1976 da Plesetsk Cosmodrome

Loading…

Prossimi Passaggi (prossime 24 ore)

TLE

AggiornatoSource: Space-Track

Epoca: Sep 14, 2026, 10:12 UTC

1 10439U 76067Q   26257.42507128 -.00000047  00000-0  30949-4 0  9995
2 10439  65.7857 225.7358 0666706 189.9134 259.4618 12.24958222243882

Traccia COSMOS 839 DEB in tempo reale con AllMySat

Download on the App Store